Location: La Silve
(44.2414°N, 5.8889°E)
Time: 10:03:57
(UTC+00:00)

Cosmos 1933 - Pass Details

Date: 01 December 2020
Orbit: 546 x 564 km, 82.5° (Epoch: 26 January)

Event Time Altitude Azimuth Distance (km) Brightness Sun altitude
Rises 16:26:33 0° 172° (S) 2,718 7.1 -5.2°
Reaches altitude 10° 16:28:45 10° 166° (SSE) 1,832 6.1 -5.6°
Maximum altitude 16:32:36 45° 93° (E) 770 3.7 -6.2°
Drops below altitude 10° 16:36:30 10° 21° (NNE) 1,857 5.6 -6.8°
Sets 16:38:45 0° 15° (NNE) 2,760 6.5 -7.2°
